Regional Weather Roundup
Issued by NWS Burlington, VT

Current Version | Previous Version | Text Only | Print | Product List | Glossary Off
Versions: 1 2 3 4 5 6 7 8 9 10 11 12 13 14 15 16 17 18 19 20 21 22 23 24 25 26 27 28 29 30 31 32 33 34 35 36 37 38 39 40 41 42 43 44 45 46 47 48 49 50

000
ASUS41 KBTV 271430
RWRBTV
VERMONT REGIONAL WEATHER ROUNDUP
NATIONAL WEATHER SERVICE BURLINGTON VT
1000 AM EDT THU AUG 27 2015

NOTE: "FAIR" INDICATES FEW OR NO CLOUDS BELOW 12,000 FEET WITH NO
SIGNIFICANT WEATHER AND/OR OBSTRUCTIONS TO VISIBILITY.

* THESE REPORTS ARE NOT UNDER NWS QUALITY CONTROL AND/OR DO NOT
  REPORT WEATHER SUCH AS PRECIPITATION AND FOG.

VTZ001>019-271500-
_____VERMONT_____


CITY           SKY/WX    TMP DP  RH WIND       PRES   REMARKS
BURLINGTON     LGT RAIN  64  58  80 SW8       30.03R
MONTPELIER     CLOUDY    63  57  81 VRB5      30.06S
MORRISVILLE    CLOUDY    64  58  80 VRB3      30.04R
ST. JOHNSBURY*   N/A     63  57  81 MISG      30.00S
LYNDONVILLE*   FAIR      62  61  96 SW6       30.04S
MIDDLEBURY*    CLOUDY    66  56  70 S5        30.03S
RUTLAND*       CLOUDY    64  54  68 W6        30.05S
SPRINGFIELD    PTSUNNY   67  54  63 CALM      30.03R
HIGHGATE*      CLOUDY    65  55  71 W3        30.02S
NEWPORT*       CLOUDY    62  57  86 N7        30.03S
BENNINGTON     MOSUNNY   67  56  67 VRB7      30.06S
MT. MANSFIELD*   N/A     50 N/A N/A NW14        N/A

_____LAKE CHAMPLAIN_____


CITY           SKY/WX    TMP DP  RH WIND       PRES   REMARKS
COLCHESTER RF*   N/A     66  57  72 NW10        N/A
DIAMOND ISL*     N/A     64  57  77 S1          N/A

$$

NYZ007-026>031-035-052-083-271500-
_____NORTHERN NEW YORK_____


CITY           SKY/WX    TMP DP  RH WIND       PRES   REMARKS
PLATTSBURGH    CLOUDY    66  56  70 N6        30.03R
SARANAC LAKE   CLOUDY    56  52  86 VRB7      30.06R
MASSENA        CLOUDY    63  54  72 W9        30.06S
OGDENSBURG*    MOSUNNY   66  55  68 W6        30.07R
POTSDAM*       PTSUNNY   64  55  72 W8        30.06S
WATERTOWN      CLOUDY    64  54  69 NW7       30.08R
FT DRUM        PTSUNNY   62  54  74 NW6       30.07S
ALBANY         PTSUNNY   68  56  65 W10       30.06S
GLENS FALLS    CLOUDY    67  54  63 VRB3      30.04R

$$
NHZ002-005-011-271500-
_____NEW HAMPSHIRE_____


CITY           SKY/WX    TMP DP  RH WIND       PRES   REMARKS
LEBANON        CLOUDY    68  55  63 CALM      30.02R
KEENE          MOSUNNY   66  54  63 CALM      30.03S
MT WASHINGTON  FOG       43  43 100 W25G31      N/A  VSB 0
PLYMOUTH       CLOUDY    67  56  67 W5        30.00S
WHITEFIELD     CLOUDY    65  56  72 NW5       30.02R

$$

_____REGIONAL QUEBEC LOCATIONS_____


CITY           SKY/WX    TMP DP  RH WIND       PRES   REMARKS
MONTREAL       PTSUNNY   64  57  77 W12G18    30.00S
QUEBEC CITY    LGT RAIN  63  59  88 W3        29.94R
SHERBROOKE     CLOUDY    64  57  77 W9        29.99R

_____REGIONAL ONTARIO LOCATIONS_____


CITY           SKY/WX    TMP DP  RH WIND       PRES   REMARKS
OTTAWA         CLOUDY    61  55  82 W10       30.06R

______KEY______
VSB  - VISIBILITY IN MILES
WCI  - WIND CHILL INDEX
HX   - HEAT INDEX
$$
NNNN



USA.gov is the U.S. government's official web portal to all federal, state and local government web resources and services.